Location: Burgerwiesen
(48.6500°N, 15.6167°E)
Time: 07:32:10
(UTC+00:00)

Cosmos-2242 - Pass Details

Date: 09 April 2020
Orbit: 590 x 618 km, 82.5° (Epoch: 02 June)

Event Time Altitude Azimuth Distance (km) Brightness Sun altitude
Exits shadow 20:08:40 54° 72° (ENE) 743 3.2 -22.2°
Drops below altitude 10° 20:12:35 10° 17° (NNE) 1,979 6.0 -22.6°
Sets 20:14:51 0° 14° (NNE) 2,893 6.9 -22.9°
